{"data":{"norad_id":59857,"intl_designator":"2024-097Y","name":"STARLINK-31569","alt_names":[],"object_type":"PAYLOAD","status":"ACTIVE","operator":null,"country":"US","launch_date":"2024-05-23","launch_site_code":"AFETR","launch_vehicle":null,"mission":null,"orbit_class":"UNKNOWN","rcs_meters":null,"size_class":null,"mass_kg":null,"dimensions":null,"purposes":["comms"],"wikipedia_slug":null,"has_3d_model":false,"image_url":null,"decayed_at":null,"tle_current":{"epoch":"2026-05-25T04:13:47.987040Z","epoch_age_seconds":59827,"freshness":"FRESH","line1":"1 59857U 24097Y   26145.17624985  .00005389  00000+0  20510-3 0  9991","line2":"2 59857  42.9992 202.4682 0001137 268.7119  91.3602 15.27596529113615","mean_motion":15.27596529,"eccentricity":0.0001137,"inclination_deg":42.9992,"raan_deg":202.4682,"arg_perigee_deg":268.7119,"mean_anomaly_deg":91.3602,"bstar":0.0002051,"rev_number":11361,"period_min":94.265728722404,"perigee_km":482.21949148193,"apogee_km":483.77971394539,"semimajor_km":6861.1366027137,"source":"CELESTRAK","updated_at":"2026-05-25T13:38:19.090015Z"}}}